www.pogodaiklimat.ru

Погода и климат >> Архив погоды >> Узбекистан >> Ташкент


АРХИВ ПОГОДЫ в Ташкенте

Время (UTC), дата Ветер
(напр.,м/с)
 
Видим.   Явления Облачность Т
(С)
Тd
(С)
f
(%)
Тe
(С)
Тes
(С)
Комфортность P
(гПа)
Po
(гПа)
Тmin
(С)
Tmax
(С)
R
(мм)
S
(см)
12 22.03 С 1 10 км 4/4 600 м
[Cu hum]
+18.6 +9.0 54 +20 +21 тепло 1014.6 958.7
15 22.03 С 1 10 км 4/0
[Ac lent]
+15.0 +8.9 67 +16 +16 тепло 1015.3 958.6 +19.2
18 22.03 В 1 10 км 6/0
[Ci fib]
+11.8 +6.2 69 +12 +12 тепло 1015.4 958.2 +19.2 1
21 22.03 СЗ 1 10 км слабый ливневой дождь 9/9 300 м
[Cb calv]
+12.0 +8.8 81 +12 +12 тепло 1017.5 960.2
00 23.03 В 2 2000 м дымка {ливн. осадки} 9/6 300 м
[Sc Ac lent]
+11.4 +10.3 93 +10 +10 тепло 1017.5 960.2
03 23.03 ЮВ 1 10 км 9/4 600 м
[Sc Ac lent]
+12.2 +9.9 86 +12 +13 по сезону 1020.2 962.8
06 23.03 Ю 1 50 км 3/0
[Ci fib]
+18.4 +5.3 42 +20 +33 опасность
простуды
1020.2 963.9 +11.0 1
09 23.03 Ю 1 10 км 9/4 1000 м
[Cu med, cong Ac lent]
+19.2 +5.9 42 +21 +23 комфорт 1019.6 963.5
12 23.03 ЮВ 1 10 км 9/0
[Ci]
+20.8 +5.8 38 +23 +25 комфорт 1019.0 963.3
15 23.03 СЗ 1 10 км 4/0
[Ac lent]
+16.5 +6.5 52 +17 +17 тепло 1019.9 963.3 +21.0
18 23.03 С 1 10 км 4/0
[Ac lent Ci fib]
+12.4 +6.2 66 +13 +13 тепло 1020.5 963.1 +21.0
21 23.03 В 2 10 км 9/0
[Ci]
+12.0 +2.9 54 +11 +11 тепло 1019.3 961.8
00 24.03 С 1 10 км 10/10 600 м
[Sc]
+11.6 +2.9 55 +12 +12 тепло 1017.4 960.0
03 24.03 СВ 1 50 км 10/10 1000 м
[Sc]
+13.1 +0.9 43 +14 +14 тепло 1016.4 959.3
06 24.03 ЮВ 1 50 км 10/8 1000 м
[Sc Ac und]
+16.0 +0.9 36 +17 +18 тепло 1015.3 958.8 +10.8
09 24.03 СЗ 1 10 км 10/10 1000 м
[Sc]
+19.3 +6.5 43 +21 +21 комфорт 1014.0 958.2
12 24.03 СЗ 2 10 км 10/0
[Ac und]
+16.6 +7.0 53 +17 +17 тепло 1015.3 958.9
15 24.03 штиль 0 10 км 10/0
[Ac und]
+12.0 +7.7 75 +12 +12 по сезону 1019.1 961.6 +19.5
18 24.03 штиль 0 10 км 10/0
[Ac und]
+11.3 +8.2 81 +11 +11 по сезону 1019.5 961.9 +19.5
21 24.03 штиль 0 10 км 9/0
[Ac lent Ci fib]
+11.2 +8.1 81 +11 +11 тепло 1018.9 961.4
00 25.03 штиль 0 10 км слабый дождь 10/10 1000 м
[Sc As op]
+10.2 +8.4 89 +9 +9 по сезону 1018.6 960.9
03 25.03 В 1 4000 м дымка {ливн. осадки, дождь} 6/0
[Ac trans Ci fib]
+10.8 +8.5 86 +10 +13 по сезону 1019.0 961.4
06 25.03 З 2 10 км {ливн. осадки, дождь} 9/6 1000 м
[Cu hum Ci]
+16.2 +7.4 56 +16 +20 тепло 1015.4 959.0 +10.0 0.0
09 25.03 З 3 10 км 9/8 1000 м
[Cu hum Cs]
+17.4 +8.6 56 +17 +19 тепло 1013.8 957.7
12 25.03 СЗ 3 10 км 10/10 1000 м
[Sc]
+14.1 +7.7 65 +13 +13 прохладно 1015.4 958.6
15 25.03 штиль 0 10 км 10/10 1000 м
[Sc]
+12.4 +8.1 75 +12 +12 по сезону 1018.3 961.0 +18.2
18 25.03 З 1 10 км {дождь} 9/8 1000 м
[Sc Ac und]
+11.2 +8.5 83 +11 +11 по сезону 1017.7 960.3 +18.2
21 25.03 З 2 10 км слабый дождь 10/0 100 м
[As op]
+7.7 +6.5 92 +6 +6 по сезону 1019.8 961.5
00 26.03 штиль 0 10 км слабый дождь 10/10 600 м
[Sc As op]
+7.5 +6.7 95 +6 +6 по сезону 1020.7 962.3
03 26.03 ЮВ 2 10 км слабый дождь 10/10 100 м
[Sc As op]
+5.1 +4.4 95 +2 +2 очень
холодно
1024.9 965.7
06 26.03 ЮВ 1 10 км слабый дождь 10/10 200 м
[Frnb Ns]
+6.1 +5.2 94 +5 +5 очень
холодно
1024.2 965.3 +4.5 8
09 26.03 СЗ 1 10 км слабый дождь 10/10 200 м
[Frnb Ns]
+7.3 +5.8 90 +6 +6 очень
холодно
1022.8 964.3
12 26.03 СВ 1 10 км слабый ливневой дождь 10/10 300 м
[Cb calv]
+7.6 +5.1 84 +7 +7 очень
холодно
1021.4 962.9
15 26.03 СЗ 1 10 км слабый дождь {ливн. осадки} 10/10 600 м
[Sc As op]
+6.2 +4.3 88 +5 +5 очень
холодно
1022.5 963.7 +7.9
18 26.03 СЗ 1 10 км слабый дождь {ливн. осадки} 10/10 100 м
[Frnb Ns]
+6.3 +5.2 93 +5 +5 прохладно 1022.8 964.1 +7.9 2
21 26.03 В 1 2000 м слабый дождь 10/10 300 м
[Sc As op]
+6.2 +5.3 94 +5 +5 прохладно 1021.4 962.6
00 27.03 СЗ 1 2000 м слабый ливневой дождь 9/8 600 м
[Cb calv Ac lent]
+7.0 +6.1 94 +6 +6 по сезону 1019.2 960.8
03 27.03 штиль 0 4000 м дымка {ливн. осадки} 10/10 200 м
[Sc As op]
+7.5 +6.4 93 +7 +7 прохладно 1019.5 961.2
06 27.03 З 1 4000 м дымка {ливн. осадки} 10/8 600 м
[Sc Ac lent]
+10.0 +7.6 100 +10 +11 прохладно 1019.7 961.8 +6.0 4
09 27.03 Ю 1 4000 м слабый дождь 10/10 600 м
[Sc]
+12.6 +7.7 72 +13 +13 по сезону 1019.3 962.0
12 27.03 В 1 4000 м слабый дождь 10/10 600 м
[Sc As op]
+11.6 +9.8 89 +11 +11 холодно 1020.0 962.5
15 27.03 В 1 10 км в посл. час ливневой дождь 8/6 1000 м
[Cu med, cong Ac lent]
+12.1 +10.7 91 +12 +12 по сезону 1021.6 964.1 +12.6
18 27.03 ЮВ 1 2000 м дымка {ливн. осадки, дождь} 10/10 600 м
[Sc]
+10.4 +9.4 94 +10 +10 по сезону 1022.4 964.5 +12.6 0.7
21 27.03 В 1 2000 м дымка 8/0
[Ac lent]
+9.4 +8.8 96 +9 +9 по сезону 1022.3 964.2
00 28.03 СВ 1 10 км ясно +8.5 +7.8 95 +8 +8 по сезону 1021.6 963.4
03 28.03 В 1 50 км ясно +12.2 +6.5 68 +12 +16 по сезону 1020.1 962.7
06 28.03 З 1 50 км ясно +20.5 +5.9 39 +22 +37 комфорт 1016.2 960.5 +7.9
09 28.03 штиль 0 50 км ясно +23.3 -1.2 20 +22 +38 комфорт 1014.7 959.6
12 28.03 В 2 50 км ясно +23.0 +4.6 30 +23 +25 комфорт 1012.8 957.8
15 28.03 В 1 10 км 3/0
[Ac lent]
+18.3 +1.3 32 +20 +20 тепло 1014.0 958.0 +24.1
18 28.03 В 2 10 км 6/0
[Ci fib]
+14.2 +1.3 41 +14 +14 тепло 1014.8 958.0 +24.1
21 28.03 В 2 10 км 8/8 1000 м
[Cu hum]
+15.6 -0.5 33 +16 +16 тепло 1013.5 957.0
00 29.03 ЮВ 3 10 км слабый ливневой дождь 10/10 1000 м
[Cb calv]
+13.1 +9.8 80 +12 +12 тепло 1017.2 960.2
03 29.03 В 2 50 км {гроза, ливн. осадки} 9/0
[Ci]
+15.1 +5.0 51 +15 +17 тепло 1017.6 960.8
06 29.03 ЮВ 1 50 км {гроза, ливн. осадки} 9/0
[Cs]
+21.6 +7.0 39 +22 +35 комфорт 1015.6 960.2 +12.4 1
09 29.03 Ю 1 50 км 9/0
[Ac trans Ci fib]
+23.7 +3.8 27 +23 +31 комфорт 1013.1 958.2

 

Местоположение метеостанции Ташкент (Ташкентская область, Узбекистан): широта 41.27 долгота 69.27 высота над уровнем моря 466 м.

В архиве по умолчанию представлена погода в Ташкенте за последнюю неделю. Архивные данные за месяц целиком и за предыдущие месяцы, начиная с января 2011 года, Вы можете получить, выбрав интересующий диапазон дат из раскрывающегося списка и нажав кнопку "Ввод!".

Внимание! Время в таблицах - всемирное. Для получения местного времени необходимо прибавить поправку, которая в Ташкенте равна 5 ч.

Смотрите также архив погоды в соседних городах и на ближайших метеорологических станциях:

Погода в Каунчи (Ташкентская область, Узбекистан) (31 км)
Погода в Туябугузе (Ташкентская область, Узбекистан) (37 км)
Погода в Келесе (Южно-Казахстанская область, Казахстан) (38 км)
Погода в Красноярской (Южно-Казахстанская область, Казахстан) (54 км)
Погода в Казыгурте (Южно-Казахстанская область, Казахстан) (55 км)
Погода в Дуканте (Ташкентская область, Узбекистан) (68 км)
Погода в Чимгане (Ташкентская область, Узбекистан) (70 км)
Погода в Сырдарье (Сырдарьинская область, Узбекистан) (70 км)
Погода в Ангрене (Ташкентская область, Узбекистан) (82 км)
Погода в Жетысае (Южно-Казахстанская область, Казахстан) (96 км)

Пояснения к столбцам:

Ветер - указаны скорость ветра в м/с - средняя за 10 мин, порывы в срок и между сроками (в фигурных скобках) и направление, откуда дует ветер: С - северный, СВ - северо-восточный, В - восточный, ЮВ - юго-восточный, Ю - южный, ЮЗ - юго-западный, З - западный, СЗ - северо-западный.
Видимость - горизонтальная дальность видимости в метрах или километрах. При видимости от 1 до 10 км при отсутствии осадков обычно наблюдается дымка, при ухудшении видимости до 1 км и менее - туман. В сухую погоду видимость может ухудшаться дымом, пылью или мглою.
Явления - указаны атмосферные явления, наблюдавшиеся в срок или в последний час перед сроком; фигурными скобками обозначены явления, наблюдавшиеся между сроками (за 1-3 часа до срока); квадратными скобками обозначены град или гололедные отложения с указанием их диаметра в мм.
Облачность - указаны через наклонную черту общая и нижняя облачность в баллах и высота нижней границы облаков в метрах; квадратными скобками обозначены формы облаков: Ci - перистые, Cs - перисто-слоистые, Cc - перисто-кучевые, Ac - высококучевые, As - высокослоистые, Sc - слоисто-кучевые, Ns - слоисто-дождевые, Cu - кучевые, Cb - кучево-дождевые. Подробнее классификацию облаков см. в Атласе облаков (PDF).
T - Температура воздуха - температура, измеренная на высоте 2 м над землей.
Td - Температура точки росы - температура, при понижении до которой содержащийся в воздухе водяной пар достигнет насыщения.
f - Относительная влажность воздуха - влажноcть воздуха, измеренная на высоте 2 м над землей.
Te - Эффективная температура - температура, которую ощущает одетый по сезону человек в тени. Характеристика душности погоды. При расчете учитывается влияние влажности воздуха и скорости ветра на теплоощущения человека.
Tes - Эффективная температура на солнце - температура, которую ощущает человек, с поправкой на солнечный нагрев. Характеристика знойности погоды. Зависит от высоты солнца над горизонтом, облачности и скорости ветра. Ночью, в пасмурную погоду, а также при ветре 12 м/с и более поправка равна нулю.
P - Атмосферное давление - приведенное к уровню моря атмосферное давление.
Po - Атмосферное давление - измеренное на уровне метеостанции атмосферное давление.
Tmin - Минимальная температура - минимум температуры воздуха на высоте 2 м над землей.
Tmax - Максимальная температура - максимум температуры воздуха на высоте 2 м над землей.
R - Количество осадков - Количество выпавших осадков, мм. При наведении курсора мыши на число - период времени, за который выпало указанное количество осадков.
S - Снежный покров - Высота снежного покрова, см. При наведении курсора мыши на число - состояние снежного покрова и степень покрытия местности в баллах.